When you browse on this site, cookies collect data to enhance your experience and personalize the content and advertising you see.
Visit our Privacy Policy to learn more. By continuing to use the site, you agree to this use of cookies and data.
  • In Austria
  • List of Countries
  • For 7 days
  • Water Temperature
  • Weather Map
  • News
  • Weather Widgets
  • user-avatar
    Login

    Hourly Weather Zacualtipan

    Today, 21 October, Monday

    Time Temperature Precipitation Wind Pressure Humidity
    00:00 +16°C° 0 mm 1 mps 615 mmHg 84%
    01:00 +16°C° 0 mm 1 mps 614 mmHg 83%
    02:00 +16°C° 0 mm 1 mps 614 mmHg 82%
    03:00 +16°C° 0 mm 2 mps 614 mmHg 81%
    04:00 +16°C° 0 mm 2 mps 614 mmHg 80%
    05:00 +16°C° 0 mm 2 mps 614 mmHg 78%
    06:00 +19°C° 0 mm 1 mps 615 mmHg 73%
    07:00 +21°C° 0 mm 1 mps 617 mmHg 68%
    08:00 +23°C° 0 mm 1 mps 618 mmHg 62%
    09:00 +24°C° 0 mm 1 mps 618 mmHg 60%
    10:00 +25°C° 0 mm 1 mps 618 mmHg 58%
    11:00 +26°C° 0 mm 1 mps 619 mmHg 56%
    12:00 +26°C° 1.3 mm 2 mps 618 mmHg 62%
    13:00 +25°C° 1.3 mm 2 mps 617 mmHg 67%
    14:00 +24°C° 1.3 mm 2 mps 616 mmHg 73%
    15:00 +23°C° 0.8 mm 1 mps 616 mmHg 77%
    16:00 +21°C° 0.8 mm 1 mps 615 mmHg 81%
    17:00 +20°C° 0.8 mm 1 mps 615 mmHg 85%
    18:00 +19°C° 0.4 mm 1 mps 616 mmHg 86%
    19:00 +18°C° 0.4 mm 1 mps 616 mmHg 86%
    20:00 +18°C° 0.4 mm 1 mps 617 mmHg 87%
    21:00 +16°C° 1.7 mm 1 mps 617 mmHg 89%
    22:00 +16°C° 1.7 mm 1 mps 617 mmHg 90%
    23:00 +15°C° 1.7 mm 0 mps 617 mmHg 92%

    Tomorrow, 22 October, Tuesday

    Time Temperature Precipitation Wind Pressure Humidity
    00:00 +16°C° 1.8 mm 1 mps 617 mmHg 93%
    01:00 +16°C° 1.8 mm 1 mps 617 mmHg 95%
    02:00 +16°C° 1.8 mm 1 mps 617 mmHg 96%
    03:00 +16°C° 0.8 mm 1 mps 617 mmHg 96%
    04:00 +16°C° 0.8 mm 1 mps 617 mmHg 95%
    05:00 +15°C° 0.8 mm 1 mps 617 mmHg 95%
    06:00 +16°C° 0 mm 1 mps 618 mmHg 92%
    07:00 +18°C° 0 mm 1 mps 618 mmHg 90%
    08:00 +18°C° 0 mm 1 mps 619 mmHg 87%
    09:00 +19°C° 0.1 mm 1 mps 619 mmHg 85%
    10:00 +18°C° 0.1 mm 2 mps 619 mmHg 83%
    11:00 +18°C° 0.1 mm 2 mps 619 mmHg 81%
    12:00 +18°C° 0.3 mm 2 mps 618 mmHg 85%
    13:00 +17°C° 0.3 mm 2 mps 618 mmHg 88%
    14:00 +17°C° 0.3 mm 2 mps 617 mmHg 91%
    15:00 +16°C° 0.4 mm 2 mps 617 mmHg 93%
    16:00 +16°C° 0.4 mm 1 mps 617 mmHg 95%
    17:00 +15°C° 0.4 mm 1 mps 618 mmHg 97%
    18:00 +15°C° 0.5 mm 1 mps 618 mmHg 97%
    19:00 +15°C° 0.5 mm 1 mps 618 mmHg 97%
    20:00 +15°C° 0.5 mm 1 mps 619 mmHg 98%
    21:00 +15°C° 1.4 mm 1 mps 619 mmHg 98%
    22:00 +15°C° 1.4 mm 1 mps 619 mmHg 98%
    23:00 +15°C° 1.4 mm 1 mps 619 mmHg 98%

    Day after tomorrow, 23 October, Wednesday

    Time Temperature Precipitation Wind Pressure Humidity
    00:00 +15°C° 0.8 mm 1 mps 618 mmHg 98%
    01:00 +14°C° 0.8 mm 1 mps 618 mmHg 98%
    02:00 +14°C° 0.8 mm 1 mps 618 mmHg 98%
    03:00 +14°C° 0.3 mm 1 mps 618 mmHg 97%
    04:00 +13°C° 0.3 mm 0 mps 617 mmHg 97%
    05:00 +13°C° 0.3 mm 0 mps 617 mmHg 97%
    06:00 +14°C° 0 mm 0 mps 618 mmHg 94%
    07:00 +15°C° 0 mm 1 mps 618 mmHg 92%
    08:00 +16°C° 0 mm 1 mps 619 mmHg 89%
    09:00 +18°C° 0.1 mm 1 mps 619 mmHg 85%
    10:00 +19°C° 0.1 mm 1 mps 619 mmHg 81%
    11:00 +19°C° 0.1 mm 2 mps 618 mmHg 78%
    12:00 +19°C° 0.3 mm 2 mps 618 mmHg 80%
    13:00 +19°C° 0.3 mm 2 mps 617 mmHg 82%
    14:00 +18°C° 0.3 mm 2 mps 616 mmHg 84%
    15:00 +17°C° 0.2 mm 2 mps 616 mmHg 87%
    16:00 +18°C° 0.2 mm 1 mps 616 mmHg 91%
    17:00 +16°C° 0.2 mm 1 mps 615 mmHg 95%
    18:00 +15°C° 0 mm 1 mps 616 mmHg 95%
    19:00 +14°C° 0 mm 1 mps 616 mmHg 96%
    20:00 +14°C° 0 mm 1 mps 617 mmHg 96%
    21:00 +14°C° 0 mm 1 mps 616 mmHg 95%
    22:00 +13°C° 0 mm 1 mps 616 mmHg 94%
    23:00 +13°C° 0 mm 1 mps 616 mmHg 93%

    24 October, Thursday

    Time Temperature Precipitation Wind Pressure Humidity
    00:00 +13°C° 0 mm 1 mps 615 mmHg 93%
    01:00 +13°C° 0 mm 1 mps 615 mmHg 93%
    02:00 +13°C° 0 mm 1 mps 615 mmHg 92%
    03:00 +12°C° 0 mm 1 mps 615 mmHg 92%
    04:00 +12°C° 0 mm 1 mps 615 mmHg 92%
    05:00 +12°C° 0 mm 1 mps 615 mmHg 91%
    06:00 +14°C° 0 mm 1 mps 616 mmHg 85%
    07:00 +15°C° 0 mm 0 mps 617 mmHg 79%
    08:00 +17°C° 0 mm 0 mps 618 mmHg 73%
    09:00 +20°C° 0 mm 1 mps 618 mmHg 70%
    10:00 +21°C° 0 mm 1 mps 617 mmHg 68%
    11:00 +21°C° 0 mm 2 mps 617 mmHg 65%
    12:00 +20°C° 0.5 mm 2 mps 617 mmHg 71%
    13:00 +20°C° 0.5 mm 2 mps 616 mmHg 78%
    14:00 +19°C° 0.5 mm 2 mps 615 mmHg 85%
    15:00 +18°C° 0.4 mm 2 mps 615 mmHg 88%
    16:00 +18°C° 0.4 mm 1 mps 615 mmHg 92%
    17:00 +16°C° 0.4 mm 1 mps 614 mmHg 96%
    18:00 +16°C° 0 mm 1 mps 615 mmHg 96%
    19:00 +15°C° 0 mm 1 mps 615 mmHg 96%
    20:00 +14°C° 0 mm 0 mps 615 mmHg 97%
    21:00 +15°C° 0 mm 1 mps 615 mmHg 96%
    22:00 +14°C° 0 mm 1 mps 615 mmHg 96%
    23:00 +14°C° 0 mm 1 mps 615 mmHg 95%

    25 October, Friday

    Time Temperature Precipitation Wind Pressure Humidity
    00:00 +14°C° 0 mm 1 mps 615 mmHg 95%
    01:00 +14°C° 0 mm 1 mps 615 mmHg 94%
    02:00 +14°C° 0 mm 1 mps 615 mmHg 94%
    03:00 +14°C° 0.1 mm 1 mps 616 mmHg 94%
    04:00 +14°C° 0.1 mm 1 mps 616 mmHg 93%
    05:00 +15°C° 0.1 mm 1 mps 616 mmHg 93%
    06:00 +15°C° 1.5 mm 1 mps 617 mmHg 95%
    07:00 +14°C° 1.5 mm 1 mps 617 mmHg 96%
    08:00 +14°C° 1.5 mm 1 mps 618 mmHg 98%
    09:00 +14°C° 2.1 mm 2 mps 617 mmHg 98%
    10:00 +14°C° 2.1 mm 2 mps 617 mmHg 98%
    11:00 +12°C° 2.1 mm 3 mps 617 mmHg 98%
    12:00 +13°C° 1.1 mm 2 mps 617 mmHg 97%
    13:00 +13°C° 1.1 mm 2 mps 616 mmHg 97%
    14:00 +12°C° 1.1 mm 2 mps 616 mmHg 97%
    15:00 +12°C° 1 mm 2 mps 617 mmHg 97%
    16:00 +12°C° 1 mm 1 mps 617 mmHg 97%
    17:00 +12°C° 1 mm 1 mps 617 mmHg 97%
    18:00 +12°C° 0.9 mm 1 mps 618 mmHg 97%
    19:00 +12°C° 0.9 mm 1 mps 618 mmHg 98%
    20:00 +12°C° 0.9 mm 1 mps 619 mmHg 98%
    21:00 +12°C° 0.8 mm 1 mps 619 mmHg 98%
    22:00 +11°C° 0.8 mm 1 mps 619 mmHg 98%
    23:00 +11°C° 0.8 mm 1 mps 619 mmHg 98%

    26 October, Saturday

    Time Temperature Precipitation Wind Pressure Humidity
    00:00 +11°C° 0.1 mm 1 mps 618 mmHg 98%
    01:00 +11°C° 0.1 mm 1 mps 618 mmHg 98%
    02:00 +10°C° 0.1 mm 1 mps 618 mmHg 97%
    03:00 +10°C° 0 mm 1 mps 618 mmHg 97%
    04:00 +10°C° 0 mm 1 mps 618 mmHg 97%
    05:00 +9°C° 0 mm 1 mps 617 mmHg 96%
    06:00 +10°C° 0 mm 1 mps 618 mmHg 92%
    07:00 +10°C° 0 mm 1 mps 618 mmHg 89%
    08:00 +10°C° 0 mm 1 mps 619 mmHg 85%
    09:00 +11°C° 0 mm 1 mps 619 mmHg 81%
    10:00 +12°C° 0 mm 1 mps 618 mmHg 78%
    11:00 +13°C° 0 mm 2 mps 618 mmHg 74%
    12:00 +13°C° 0 mm 2 mps 618 mmHg 74%
    13:00 +14°C° 0 mm 2 mps 617 mmHg 74%
    14:00 +14°C° 0 mm 2 mps 616 mmHg 73%
    15:00 +13°C° 0 mm 2 mps 616 mmHg 79%
    16:00 +12°C° 0 mm 1 mps 616 mmHg 84%
    17:00 +10°C° 0 mm 1 mps 616 mmHg 90%
    18:00 +9°C° 0 mm 0 mps 616 mmHg 91%
    19:00 +8°C° 0 mm 0 mps 616 mmHg 93%
    20:00 +8°C° 0 mm 0 mps 616 mmHg 95%
    21:00 +8°C° 0 mm 0 mps 616 mmHg 94%
    22:00 +8°C° 0 mm 0 mps 616 mmHg 93%
    23:00 +9°C° 0 mm 1 mps 616 mmHg 92%

    27 October, Sunday

    Time Temperature Precipitation Wind Pressure Humidity
    00:00 +8°C° 0 mm 0 mps 615 mmHg 92%
    01:00 +8°C° 0 mm 0 mps 615 mmHg 91%
    02:00 +8°C° 0 mm 0 mps 615 mmHg 91%
    03:00 +8°C° 0 mm 0 mps 615 mmHg 90%
    04:00 +8°C° 0 mm 0 mps 615 mmHg 90%
    05:00 +9°C° 0 mm 0 mps 615 mmHg 90%
    06:00 +11°C° 0 mm 0 mps 616 mmHg 83%
    07:00 +13°C° 0 mm 0 mps 617 mmHg 77%
    08:00 +15°C° 0 mm 0 mps 618 mmHg 70%
    09:00 +18°C° 0 mm 1 mps 618 mmHg 69%
    10:00 +19°C° 0 mm 1 mps 618 mmHg 67%
    11:00 +19°C° 0 mm 2 mps 619 mmHg 65%
    12:00 +19°C° 0 mm 2 mps 618 mmHg 67%
    13:00 +19°C° 0 mm 2 mps 617 mmHg 69%
    14:00 +19°C° 0 mm 2 mps 617 mmHg 71%
    15:00 +17°C° 0 mm 2 mps 616 mmHg 78%
    16:00 +16°C° 0 mm 1 mps 616 mmHg 86%
    17:00 +14°C° 0 mm 1 mps 616 mmHg 94%
    18:00 +12°C° 0 mm 0 mps 616 mmHg 94%
    19:00 +12°C° 0 mm 0 mps 616 mmHg 93%
    20:00 +11°C° 0 mm 0 mps 616 mmHg 93%
    21:00 +11°C° 0 mm 0 mps 616 mmHg 92%
    22:00 +11°C° 0 mm 0 mps 616 mmHg 91%
    23:00 +11°C° 0 mm 0 mps 616 mmHg 90%
    Show more